Wind_Speed
22 23 23 23 23 23 23 24 25 25 26 26 26 27 27 26 26 26 26 26 26 26 26 26 26 26 26 26 25 25 24 24 23 23 23 23 24 24 24 24 24 24 24 23 23 22 23 23 23 22 21 21 20 21 21 21 21 22 23 24 24 25 25 25 25 25 25 26 25
20 21 21 22 22 22 23 24 25 25 26 27 27 27 28 28 28 28 28 28 27 27 27 27 27 27 27 26 26 25 25 24 24 24 24 25 25 25 25 25 25 24 24 23 23 22 23 23 23 23 23 22 21 22 22 22 22 22 23 23 24 24 24 24 24 24 24 25 25
17 18 19 20 21 22 23 24 24 25 26 26 27 27 28 28 28 29 29 29 29 29 28 28 28 28 27 27 27 26 25 25 25 25 26 26 26 26 26 25 25 25 24 23 23 22 22 23 23 24 24 23 23 23 24 23 23 23 23 23 24 23 23 22 23 23 23 23 23
16 17 18 19 20 21 22 23 24 25 26 26 27 27 28 28 29 29 30 30 30 29 29 29 29 29 29 28 28 28 27 27 27 27 27 27 27 27 27 26 25 25 24 23 23 23 23 23 24 24 24 25 25 25 25 25 24 24 24 24 23 23 23 22 23 23 23 22 23
16 17 18 19 20 21 22 23 24 25 26 27 28 29 29 30 30 30 31 31 31 31 31 31 32 32 32 31 31 31 31 30 29 28 28 28 28 28 27 27 26 25 25 24 24 23 24 24 24 24 24 25 25 26 26 26 26 25 25 25 24 23 22 22 22 23 23 23 23
18 19 19 20 21 22 23 24 25 26 26 27 28 29 30 30 31 31 31 32 33 33 34 34 34 34 34 33 33 33 33 32 31 30 30 29 29 29 28 27 27 26 25 24 24 24 24 24 24 25 25 25 25 26 26 26 26 26 25 25 24 24 23 23 23 23 23 24 25
18 19 20 20 21 22 23 24 24 25 26 27 27 28 29 30 30 31 32 33 34 34 34 34 34 34 34 34 34 34 34 33 33 32 31 30 30 29 28 27 27 26 25 25 24 24 24 24 24 24 25 25 25 26 26 26 26 25 25 25 25 24 24 24 24 24 24 25 26
18 19 20 21 21 22 23 24 24 25 25 26 26 27 27 28 29 30 31 32 32 32 33 33 33 34 34 34 35 35 35 34 34 33 32 31 30 29 28 27 27 26 26 25 25 25 24 24 24 25 25 25 25 26 26 26 26 26 26 26 26 26 25 25 25 25 25 26 26
19 20 20 21 22 22 23 24 24 24 24 25 25 26 26 27 27 28 29 30 30 31 31 32 33 33 34 34 35 35 35 34 34 33 32 31 30 29 28 27 27 27 26 26 26 25 25 25 25 25 26 26 26 27 27 27 27 28 28 27 27 27 26 26 25 25 25 25 26
19 20 21 22 22 23 23 24 24 24 24 25 25 25 26 26 27 27 28 29 30 30 31 32 33 33 34 34 34 34 34 34 34 33 32 31 30 29 29 28 28 27 27 27 26 26 26 26 26 26 26 27 27 27 28 28 28 29 28 28 27 27 27 27 26 25 25 25 26
20 21 21 22 22 23 23 24 24 24 24 25 25 26 26 27 27 28 29 29 30 31 31 32 33 33 33 33 34 34 34 34 33 33 32 32 31 31 30 30 29 29 29 28 28 27 27 26 27 27 27 27 27 27 27 27 28 28 29 28 28 28 28 27 27 26 26 26 26
20 21 22 22 23 24 24 25 25 25 25 25 26 27 27 28 28 29 30 30 31 31 32 32 32 32 33 33 33 34 34 34 34 34 33 33 33 33 33 32 32 31 31 30 30 29 28 27 27 27 28 28 27 27 26 26 27 28 29 29 28 28 28 28 28 27 26 26 26
21 22 23 24 24 25 25 26 26 26 27 27 28 29 29 29 30 30 30 31 31 32 32 32 32 32 33 33 33 33 34 34 34 34 34 34 34 34 34 34 34 33 33 32 31 30 29 28 28 28 28 28 28 28 27 27 27 28 28 29 29 29 29 29 28 27 27 26 26
23 23 24 25 26 26 27 27 27 28 28 28 29 29 30 30 31 31 31 31 32 33 33 33 33 33 32 33 33 33 33 33 33 34 34 34 34 34 34 34 34 34 33 33 32 31 30 30 29 29 28 28 28 28 28 27 28 28 28 28 29 29 29 29 28 28 27 27 27
24 25 26 27 27 27 28 28 28 28 28 28 29 30 30 31 32 32 32 33 33 34 34 34 33 33 33 33 33 33 33 33 33 33 33 34 34 34 34 34 34 34 34 33 33 32 31 31 30 29 29 29 28 28 28 28 28 28 28 28 28 29 29 29 29 28 27 27 27
25 26 26 27 27 28 28 28 28 28 28 29 30 31 32 32 33 33 33 33 34 34 34 34 34 34 34 34 34 33 33 33 33 33 33 33 34 34 34 34 34 34 34 34 33 33 32 32 31 30 30 30 29 29 28 28 28 28 28 28 28 29 29 29 29 29 29 29 28
25 26 26 27 27 27 28 28 28 28 29 30 31 32 32 33 33 33 34 34 34 34 35 35 35 35 35 35 35 34 34 33 33 33 33 33 34 34 35 35 35 35 35 34 34 34 33 33 32 32 31 31 31 30 29 29 28 28 28 28 29 29 29 30 30 29 29 30 30
25 26 26 27 27 27 28 28 29 30 30 31 32 32 33 33 33 34 34 35 35 35 35 36 36 36 36 36 35 35 34 34 34 34 35 35 35 36 36 36 36 36 35 35 35 35 35 34 34 33 33 32 32 31 31 30 29 29 29 29 29 29 30 30 30 30 30 30 30
25 26 26 27 27 28 28 29 30 30 31 32 32 33 33 34 34 35 35 36 36 36 36 36 37 37 37 37 36 36 36 36 36 36 36 37 37 37 37 37 37 37 36 36 36 36 35 35 35 34 34 34 33 33 32 32 31 30 30 30 30 30 30 30 30 30 30 30 31
26 26 27 27 28 28 29 29 30 31 31 32 33 33 34 35 35 36 36 36 37 36 36 36 37 38 38 38 38 38 37 37 37 37 37 37 37 37 38 38 38 37 37 37 37 37 36 36 36 35 35 35 34 34 34 33 32 31 30 29 29 29 29 30 30 30 30 30 30
26 27 27 28 28 29 29 30 30 31 32 32 33 34 34 35 36 36 36 37 37 37 37 37 37 38 38 38 38 38 38 37 37 37 37 38 38 38 38 38 38 38 38 38 37 37 37 37 37 36 36 36 35 35 34 33 32 31 31 30 29 29 29 30 30 30 31 31 32
27 27 28 28 28 29 30 30 31 31 32 33 33 34 35 35 36 36 37 37 37 37 37 37 38 38 38 38 38 38 38 38 38 38 38 38 38 38 38 38 38 38 38 39 39 39 39 38 38 38 37 36 36 35 34 33 32 31 31 31 30 30 30 31 31 31 31 32 33
27 28 28 28 29 29 30 31 31 32 32 33 34 34 35 36 36 37 37 37 37 37 37 37 37 37 37 37 38 38 38 39 39 39 39 38 38 39 39 38 38 38 39 39 39 39 38 38 38 37 36 35 35 34 34 33 33 32 31 31 31 31 31 31 31 31 31 32 32
28 28 28 29 29 30 30 31 31 32 33 33 34 34 35 36 36 37 37 37 37 37 37 37 37 37 37 37 38 38 38 38 39 39 39 39 39 38 38 37 37 37 37 37 37 37 36 35 35 34 34 33 33 32 32 32 32 31 31 31 31 31 31 30 31 31 32 32 32
28 29 29 29 30 30 31 31 31 32 33 33 34 34 35 36 36 36 37 37 37 37 37 37 38 38 37 37 37 38 37 37 37 38 38 38 38 37 36 36 35 35 34 35 35 36 35 34 33 33 32 32 31 31 30 30 30 30 31 31 31 30 30 30 32 33 34 34 33
28 29 29 30 30 30 31 31 31 32 33 33 34 34 35 35 36 36 36 37 37 38 37 37 37 37 37 36 37 37 36 36 35 35 35 35 36 36 36 34 33 33 33 33 34 34 34 35 34 33 32 31 30 30 29 29 29 29 30 31 31 30 29 30 31 33 34 34 34
29 29 29 30 30 31 31 31 32 32 33 34 34 35 35 35 36 36 36 37 37 38 37 36 36 36 35 35 35 35 35 34 34 34 34 34 35 35 35 34 34 34 34 34 35 35 35 35 35 34 34 32 31 30 31 31 31 31 30 30 30 31 31 31 31 32 32 32 33
29 29 29 30 31 31 32 32 32 33 33 34 34 35 35 36 36 36 36 36 37 36 36 35 35 34 32 33 33 34 34 35 34 34 34 34 36 36 37 36 36 35 36 36 36 36 36 36 36 36 35 34 32 32 32 32 31 31 32 31 30 31 32 31 32 32 32 32 32
29 29 30 30 31 32 32 33 33 33 34 34 35 35 35 36 36 36 36 36 36 35 34 34 34 33 32 33 34 35 36 36 36 36 35 35 36 37 38 37 38 38 38 38 38 38 38 38 38 37 37 35 33 31 30 30 29 30 30 30 29 29 30 31 31 32 32 32 32
28 29 29 30 31 32 33 33 33 34 34 35 35 35 35 36 36 35 35 35 35 34 34 33 33 33 34 35 36 36 36 37 37 36 35 36 37 38 38 38 38 38 38 39 39 39 39 39 38 38 37 37 35 33 31 30 29 29 28 29 29 29 30 30 31 31 31 32 32
28 29 30 30 31 32 33 34 34 35 35 35 35 35 35 35 35 35 34 34 34 34 34 34 34 35 35 36 36 36 37 37 37 36 36 36 37 38 39 39 39 39 40 40 40 40 40 39 39 39 38 38 36 34 32 32 31 31 30 31 30 31 32 33 32 31 31 32 31
29 29 30 31 32 33 34 34 35 35 35 35 35 35 35 35 34 34 34 34 33 34 34 34 35 36 36 36 36 36 37 37 37 37 37 37 38 39 40 40 40 41 41 41 41 41 41 41 40 40 39 38 37 36 35 34 33 32 33 33 33 34 33 32 32 32 31 31 31
29 29 30 31 32 33 34 35 35 35 35 35 35 34 34 34 34 34 34 33 33 33 33 34 35 35 36 36 37 37 37 37 38 38 39 39 39 39 40 41 41 41 41 41 41 41 41 41 40 40 39 39 38 37 36 35 34 33 33 34 35 35 34 34 33 32 32 32 32
29 30 31 32 33 34 35 35 35 35 35 34 34 34 33 33 34 34 34 33 33 33 33 34 34 34 35 35 36 37 37 38 38 38 39 39 39 39 40 41 41 41 41 41 41 42 41 41 40 40 40 39 38 36 35 35 34 33 34 34 36 36 35 35 35 35 34 34 33
29 30 31 33 34 34 35 35 35 35 34 34 34 34 34 33 33 33 33 33 33 33 34 34 34 34 35 35 35 36 36 37 38 39 39 39 39 40 40 41 42 43 44 43 43 43 43 43 42 41 40 39 37 36 35 34 34 34 34 35 36 37 37 36 36 36 36 36 35
29 30 31 33 34 34 34 34 34 34 33 33 33 33 34 33 33 33 33 33 33 34 34 34 34 34 34 35 35 35 35 37 38 39 40 40 40 40 41 42 44 45 45 45 44 44 44 44 43 43 41 39 36 35 33 32 32 33 34 34 35 36 37 38 37 36 36 35 35
29 30 31 32 33 34 34 33 33 33 32 33 33 33 33 33 33 33 33 32 33 33 34 34 34 34 35 36 36 36 37 38 38 39 40 41 41 41 41 42 44 46 46 46 45 45 44 44 44 43 41 39 36 34 32 31 30 31 32 33 34 35 36 36 36 36 36 36 36
30 30 31 31 32 32 32 32 32 31 31 32 32 32 32 32 32 33 32 32 32 33 34 34 35 35 36 37 37 38 38 39 39 39 40 41 42 41 41 42 44 46 46 46 45 45 44 43 43 42 41 38 35 33 31 30 29 29 29 30 31 33 33 33 33 34 35 36 37
30 30 30 30 31 31 31 31 30 30 31 31 32 32 32 32 32 32 32 32 32 33 34 35 35 36 37 38 38 38 39 40 40 40 40 41 41 42 42 42 44 45 46 46 46 45 44 43 43 42 41 39 36 33 31 29 29 29 29 29 29 30 30 31 31 31 32 35 37
30 30 29 29 29 29 29 29 30 30 30 30 31 32 32 32 32 32 33 32 33 33 34 35 36 37 37 37 37 37 38 40 40 40 40 41 42 43 43 43 43 45 46 46 46 46 45 44 42 42 40 38 36 33 30 29 28 28 28 28 28 27 27 28 29 29 30 32 34
29 29 28 27 27 27 28 29 30 30 30 30 30 31 31 32 32 32 32 32 34 34 34 34 36 37 37 37 36 36 37 39 41 41 41 42 42 43 43 42 43 43 44 45 45 44 43 42 41 40 39 36 34 32 30 28 27 27 27 28 28 26 25 26 26 27 28 29 31
Wind_Direction
305 305 305 306 306 307 307 308 309 310 310 309 308 306 304 301 299 298 298 298 298 298 298 299 299 300 301 302 304 305 305 305 304 303 303 304 304 304 304 304 303 302 301 300 299 299 299 300 302 304 306 308 309 310 311 312 313 313 313 313 313 313 313 311 309 308 306 304 301
317 316 316 317 319 319 320 321 321 321 321 319 318 315 312 308 305 303 303 302 302 302 302 303 303 303 303 304 304 304 304 303 303 303 302 302 302 302 301 300 298 297 296 294 294 293 294 295 297 299 301 302 304 305 306 308 309 309 309 308 308 309 309 307 306 305 304 302 300
335 333 333 333 333 333 332 331 330 329 328 326 324 321 318 314 311 309 307 306 306 306 306 306 307 307 306 306 306 305 304 303 303 302 302 301 301 300 298 296 294 292 291 289 288 288 288 289 292 294 296 298 300 301 302 303 304 304 303 303 304 304 304 302 302 302 301 299 297
346 344 342 340 339 337 336 334 332 330 328 327 325 322 320 317 315 312 311 310 309 309 309 309 309 309 308 307 306 305 304 303 303 302 301 301 300 298 296 293 290 288 286 285 283 283 284 285 287 290 292 295 296 297 298 299 300 299 298 298 299 298 298 297 298 299 298 296 295
345 343 341 339 337 335 333 332 330 328 326 325 323 321 319 318 316 314 313 311 310 309 309 309 308 308 307 306 306 305 304 303 302 301 300 299 298 297 295 292 288 285 283 281 280 280 280 282 283 285 287 290 291 293 294 296 296 295 295 294 293 293 292 293 293 294 294 293 292
341 339 338 336 335 333 331 330 328 327 325 324 322 320 318 317 316 314 313 311 310 310 309 308 307 306 306 305 304 303 302 301 300 299 298 297 297 296 293 290 287 284 281 278 277 276 277 278 279 281 283 285 286 287 290 292 293 292 291 290 289 288 288 288 288 290 290 290 290
339 338 336 335 333 331 329 328 327 325 324 322 320 319 317 317 316 314 313 312 311 310 309 308 306 305 304 303 302 301 300 300 299 298 297 296 295 294 292 289 286 283 280 277 275 274 274 274 274 276 279 281 281 283 285 288 288 288 286 285 284 284 284 283 284 285 286 287 287
337 335 334 332 331 329 328 326 325 324 322 320 318 317 317 316 315 314 313 312 311 310 309 308 307 306 304 303 302 301 300 300 299 299 298 297 295 293 291 288 285 282 280 278 276 274 272 271 271 273 274 275 276 278 282 283 284 283 282 281 281 281 280 279 280 281 282 283 284
334 332 331 329 328 327 326 324 323 321 320 318 317 316 316 315 314 314 312 311 310 310 309 308 307 306 305 304 303 302 302 301 300 299 299 297 295 293 290 287 284 282 279 277 275 273 271 269 268 269 270 270 272 274 277 279 280 279 279 278 278 278 277 276 276 277 277 279 280
331 330 328 327 326 324 323 321 320 319 318 317 316 315 315 314 312 311 310 310 309 308 307 307 306 306 305 304 303 302 302 301 300 299 298 296 294 291 289 286 283 280 278 276 273 271 269 267 266 266 266 267 269 270 272 274 276 276 276 275 275 274 274 273 273 272 273 274 275
329 327 326 325 324 322 321 320 319 318 318 317 315 314 313 311 310 309 308 308 307 306 305 305 305 304 303 302 302 301 300 299 298 297 296 294 292 290 287 285 282 279 277 275 272 270 267 266 265 265 265 265 266 267 268 269 271 273 273 272 272 271 271 270 270 269 269 270 272
327 326 325 324 322 321 321 320 319 318 317 316 314 313 311 310 309 308 308 307 306 305 304 304 303 302 301 300 299 299 298 297 296 295 293 292 290 288 287 284 282 280 278 275 273 270 267 265 264 263 263 263 264 264 263 263 265 268 270 270 269 268 268 268 268 267 267 267 268
326 325 324 323 322 321 320 320 319 317 316 314 312 311 310 309 308 308 307 306 305 304 303 303 302 301 300 299 298 297 296 295 294 293 291 290 289 287 286 284 282 280 278 276 274 271 268 266 264 263 263 262 262 261 259 258 259 262 264 264 265 265 265 266 266 266 266 265 265
325 324 323 322 321 320 319 318 317 315 313 312 311 310 309 308 308 307 306 305 304 303 302 302 301 300 298 297 296 295 294 294 293 292 290 289 288 286 285 284 282 280 278 277 274 272 269 267 265 264 263 262 261 260 258 257 256 256 256 258 261 262 263 264 265 265 264 264 263
324 323 321 320 319 318 317 316 314 313 311 310 309 308 307 306 306 305 305 304 303 302 302 301 300 299 298 297 296 295 294 293 292 291 290 288 287 286 284 283 282 280 278 277 275 273 270 268 267 265 264 263 262 261 259 257 255 253 253 254 257 259 261 262 264 264 263 263 263
322 320 319 318 317 316 315 314 312 310 309 307 307 306 306 305 305 304 304 303 302 302 301 300 299 298 297 297 296 295 294 293 292 290 289 288 287 285 284 283 282 280 279 278 276 274 272 270 268 267 265 264 263 262 260 257 255 253 253 253 254 256 259 260 262 263 263 263 262
320 318 317 316 315 314 313 311 310 308 307 306 306 305 305 304 304 303 303 302 302 301 300 299 299 298 297 296 295 294 294 292 291 289 288 287 286 285 284 283 281 280 279 278 276 275 273 272 270 268 267 265 264 262 260 258 256 254 253 253 253 254 256 258 260 260 261 262 261
318 317 316 315 314 312 311 310 308 307 306 305 305 305 304 304 303 303 302 302 301 300 300 299 298 297 296 296 295 294 293 291 290 288 287 286 285 284 283 282 281 280 279 277 276 275 274 272 271 270 268 266 264 263 261 259 257 255 254 253 252 252 253 255 256 257 258 260 259
317 316 315 314 312 311 309 308 307 306 306 305 305 305 304 304 303 303 302 302 301 300 299 298 297 297 296 295 294 293 292 290 289 288 286 285 284 283 282 281 280 279 278 277 276 275 274 272 271 270 268 266 265 263 262 260 258 256 254 253 253 252 251 251 251 252 254 256 256
316 315 313 312 311 309 308 307 306 306 306 305 305 305 304 304 304 303 302 301 300 300 299 297 297 296 295 294 293 292 291 290 289 288 286 285 284 283 282 281 280 279 278 277 276 275 273 272 271 269 268 267 265 264 262 260 258 256 254 253 251 250 249 247 247 247 248 250 251
315 313 312 311 309 308 307 307 306 306 306 306 306 305 305 304 304 303 302 301 300 299 298 297 296 295 295 294 293 292 291 290 289 288 286 285 284 283 282 281 281 280 279 277 276 275 273 272 271 269 268 267 266 264 262 261 258 257 254 252 251 249 247 247 247 246 247 248 250
313 312 311 310 309 308 308 307 307 307 307 307 306 306 305 305 304 302 302 301 300 299 297 296 295 295 294 293 292 292 291 291 289 288 286 285 284 283 282 281 281 280 278 277 276 275 273 272 270 269 268 267 265 264 262 260 258 256 255 253 251 249 248 248 247 246 247 248 248
313 312 311 310 309 309 308 308 308 308 308 307 307 306 305 304 303 303 302 301 300 298 297 296 295 294 293 293 292 292 291 290 289 288 287 285 284 283 282 281 280 279 277 276 275 274 273 271 270 269 267 266 264 262 260 259 257 256 254 253 252 250 249 247 245 245 245 246 246
313 312 311 310 310 309 309 309 309 309 308 308 307 306 305 304 304 303 302 301 299 298 297 296 295 295 294 293 293 292 291 290 289 288 287 286 285 284 283 282 280 278 277 275 274 272 271 270 270 268 267 265 263 261 260 258 256 254 253 252 251 250 248 246 244 244 245 244 244
313 312 311 311 310 310 310 310 310 309 309 308 307 306 305 305 304 303 302 301 299 298 297 297 296 296 295 294 293 292 291 289 288 288 287 287 285 284 283 282 280 278 276 274 273 271 270 269 268 268 267 266 264 262 260 257 255 253 252 251 250 249 247 246 245 245 246 245 244
313 312 311 311 311 311 310 310 310 309 309 308 307 306 305 305 304 303 302 300 299 299 298 298 297 297 296 295 294 292 291 289 288 287 286 286 285 284 283 282 280 278 276 275 273 272 271 270 268 267 267 266 265 264 262 259 256 254 252 251 250 248 247 246 246 246 245 244 244
313 312 312 312 311 311 311 310 310 310 309 308 307 307 306 305 304 303 301 300 300 299 299 298 298 297 296 295 293 292 290 289 288 287 286 285 284 283 282 281 280 278 276 275 274 273 272 271 270 268 267 266 265 263 262 261 259 256 254 251 250 248 247 246 246 245 244 243 242
313 313 312 312 312 311 311 311 310 310 309 308 307 306 305 304 303 302 301 300 300 300 300 299 299 298 296 295 293 292 290 290 288 287 286 284 283 282 281 280 278 277 276 275 274 273 273 272 271 269 267 266 264 263 261 260 258 256 254 251 248 247 245 244 244 244 244 243 241
313 313 313 313 312 311 311 311 311 310 309 308 307 306 305 304 303 302 301 301 301 301 300 299 299 298 296 294 293 292 291 289 288 287 285 283 282 281 280 279 278 276 275 275 274 273 272 271 270 269 268 266 265 263 261 259 257 254 252 249 246 244 243 242 242 242 242 242 241
314 314 313 313 312 312 311 311 310 309 309 308 307 306 305 304 303 302 302 302 301 301 300 299 298 297 295 293 292 291 290 289 288 286 284 283 282 281 280 278 277 276 275 274 273 272 271 270 269 268 267 266 265 264 262 260 257 255 252 249 247 244 243 242 242 242 242 242 242
315 314 314 313 312 311 311 311 310 309 309 308 307 306 305 304 303 303 302 302 301 301 300 299 297 295 293 292 291 290 289 288 287 286 284 282 281 281 280 279 277 276 275 274 273 272 271 269 268 267 266 264 263 262 261 260 258 256 254 252 250 248 247 247 246 244 243 243 242
315 315 314 313 312 311 311 311 310 309 308 307 307 306 305 304 303 303 303 302 302 301 300 299 297 295 294 293 292 290 289 288 287 285 284 283 282 281 281 280 278 276 275 274 273 271 270 269 267 266 264 263 261 259 258 257 257 256 255 254 253 251 250 249 248 247 246 244 243
316 315 315 313 312 311 311 310 310 309 308 307 306 305 305 304 304 304 304 303 302 301 300 298 296 295 294 293 292 290 289 288 286 285 284 283 282 281 280 279 278 276 275 274 272 271 269 268 266 264 263 261 259 258 256 254 253 253 253 252 252 252 251 250 249 248 248 246 245
317 316 315 313 312 311 311 310 310 309 308 307 306 306 305 305 305 305 304 303 302 301 298 296 294 293 292 291 290 289 289 288 287 285 284 284 282 281 279 278 277 276 275 273 272 271 269 267 265 263 262 260 258 256 254 252 250 249 249 249 249 249 249 248 248 247 247 246 245
317 316 315 313 312 311 311 310 310 309 308 307 307 306 306 306 305 305 304 303 302 300 298 295 293 292 291 290 289 288 288 286 286 286 285 283 282 281 279 277 277 276 275 273 272 270 269 267 264 263 261 259 257 255 253 250 248 247 246 246 246 246 247 246 246 246 245 245 244
317 316 315 313 312 311 311 310 310 309 308 308 307 307 307 307 306 305 304 303 302 300 298 296 295 293 292 291 290 289 288 287 287 286 286 284 283 281 279 278 278 277 277 274 272 270 268 266 264 262 260 258 256 253 251 248 247 245 244 243 243 243 244 245 244 243 243 242 242
317 316 315 313 312 311 311 310 310 309 308 308 308 307 307 307 306 305 305 304 302 301 299 297 296 294 293 293 292 291 289 289 288 287 286 285 284 282 280 279 279 279 278 276 273 270 268 266 264 261 259 256 254 251 249 247 245 244 243 242 241 241 242 243 242 242 241 240 240
317 316 314 313 311 311 311 310 310 309 308 308 308 307 307 307 306 305 305 304 302 301 299 298 297 295 294 294 293 292 290 289 288 287 286 285 284 283 281 280 280 280 279 278 275 272 269 266 263 260 257 254 252 249 247 245 244 243 242 241 241 241 240 240 240 239 239 239 239
316 315 314 313 311 311 311 310 310 309 308 308 308 308 307 306 305 304 304 303 302 300 299 298 296 295 295 295 294 293 292 291 289 288 286 285 285 284 283 281 281 281 280 279 278 275 271 267 263 260 256 253 250 247 245 243 242 241 241 241 241 241 240 239 238 238 238 238 238
316 315 314 313 312 311 311 310 310 309 308 308 308 307 307 306 305 304 304 302 301 300 299 297 296 296 295 295 295 294 293 292 292 290 288 287 287 287 286 283 282 282 281 281 279 277 273 269 264 260 255 251 248 244 242 240 240 239 239 239 240 240 239 238 237 236 237 237 238
316 316 315 314 313 312 311 311 310 309 308 307 307 306 306 306 304 304 303 302 302 301 299 297 297 297 296 296 295 294 293 293 293 292 291 290 289 288 287 284 283 283 283 282 281 279 276 271 265 260 255 250 246 242 239 237 237 237 237 237 237 238 238 238 236 236 235 236 236
Height
780 779 779 778 778 777 777 776 776 775 775 774 774 773 772 772 771 770 769 769 768 767 767 766 765 765 764 764 764 764 763 763 762 762 762 762 761 761 760 760 759 759 759 758 758 757 757 756 755 755 754 754 754 754 753 753 753 752 752 751 751 750 750 749 748 747 746 745 744
779 778 778 778 777 776 776 775 775 774 774 774 773 772 772 771 770 769 769 768 767 767 766 765 764 764 763 763 762 762 761 761 760 760 760 759 759 759 759 758 757 757 756 756 755 755 754 754 754 753 753 752 752 752 751 751 751 750 750 749 749 749 748 747 746 746 745 744 743
777 777 777 776 776 775 775 774 774 774 773 773 772 772 771 770 769 769 768 767 766 765 764 764 763 762 762 761 761 760 759 759 758 758 757 757 757 757 756 756 755 754 754 754 753 752 752 751 751 751 750 750 750 749 749 749 749 749 748 747 747 747 747 746 745 744 744 743 742
776 775 775 775 774 774 774 774 773 772 772 771 771 770 770 769 768 767 766 765 764 764 763 762 761 760 760 759 759 758 757 757 756 755 754 754 754 754 754 754 753 752 752 751 750 750 749 749 748 748 748 748 748 747 747 747 747 746 746 745 745 745 744 744 744 743 742 741 741
775 774 774 774 774 773 773 773 772 771 771 770 769 769 768 767 767 766 764 764 762 761 761 760 759 758 758 757 756 755 755 754 753 752 752 751 751 751 751 751 750 750 749 749 748 748 747 746 746 745 745 745 745 745 745 745 744 744 744 743 743 743 743 742 742 741 741 740 739
774 774 773 773 773 772 772 771 771 770 769 769 768 767 767 766 765 764 763 762 761 759 759 758 757 756 755 754 754 753 752 751 751 750 749 749 748 748 748 748 748 747 747 746 746 745 744 744 743 743 743 743 743 742 742 743 742 742 741 741 740 740 740 740 739 739 739 738 737
773 772 772 772 771 771 770 770 769 769 768 767 767 766 765 764 764 763 761 760 759 758 757 756 755 754 753 752 752 751 750 749 748 748 747 746 745 745 745 745 745 745 744 744 743 743 742 742 741 740 740 740 740 740 740 740 740 739 739 738 738 738 738 737 737 737 737 735 735
771 771 771 770 770 769 769 768 768 767 766 766 765 764 763 763 762 761 760 759 758 756 755 754 754 753 752 751 750 749 748 747 746 745 744 744 743 743 742 742 742 742 741 741 741 740 740 739 739 738 738 738 737 737 737 738 738 737 736 736 735 735 735 734 734 734 734 734 733
770 770 769 769 769 768 767 767 766 765 764 764 763 763 762 761 760 759 758 757 756 755 754 753 752 751 750 749 748 747 746 745 744 743 742 741 741 740 740 739 739 739 739 739 738 738 737 737 736 735 735 735 734 734 734 735 735 735 734 734 733 732 732 732 732 732 732 731 731
769 769 768 768 767 767 766 765 764 764 763 762 761 761 760 759 758 758 757 755 754 753 752 751 750 749 748 747 746 745 744 743 742 741 740 739 739 738 738 737 737 736 736 735 735 735 734 734 733 732 732 732 732 731 731 732 732 732 731 731 731 730 729 729 729 729 729 729 729
768 768 767 767 766 765 764 764 763 762 761 760 759 759 758 757 756 755 754 754 752 751 750 749 749 747 746 745 744 743 742 741 740 739 738 737 737 736 736 735 734 734 733 733 733 732 732 731 730 729 729 729 729 728 728 728 729 729 729 728 728 728 727 726 727 727 727 726 726
767 766 766 765 764 764 763 762 761 760 759 759 758 757 756 755 754 754 752 751 750 749 748 747 746 745 744 743 742 741 740 739 738 737 736 735 734 734 733 732 732 731 730 730 730 729 729 728 727 727 726 726 726 726 725 725 725 725 725 725 725 725 724 724 724 724 724 724 724
766 765 764 764 763 762 761 760 759 759 758 757 756 755 754 753 752 751 750 749 748 747 745 745 744 743 742 740 739 739 738 736 735 734 733 732 731 730 730 729 729 728 727 727 727 726 726 725 724 724 723 723 723 723 722 722 722 722 722 722 722 722 721 721 721 721 722 722 721
764 764 763 762 761 760 760 759 758 757 756 755 754 754 753 751 750 749 749 747 746 745 744 742 741 740 739 738 737 736 735 734 733 732 731 729 729 728 727 726 725 725 724 724 723 723 722 721 721 720 720 719 719 719 719 719 719 719 719 719 719 719 718 718 719 719 719 719 719
763 762 761 761 760 759 759 758 757 756 755 754 753 752 751 750 749 748 747 745 744 743 741 740 739 738 737 736 735 734 733 731 730 729 728 727 725 724 724 723 722 721 721 720 720 719 719 718 718 717 717 717 716 716 716 716 716 716 716 716 716 715 715 716 716 716 716 716 716
761 761 760 760 759 758 757 756 755 754 754 752 751 750 749 748 747 745 744 743 741 740 739 738 736 735 734 733 732 731 730 729 728 726 725 724 723 721 720 720 719 718 718 717 716 716 715 715 715 714 714 713 713 713 713 713 713 713 713 713 713 713 713 713 713 714 714 714 714
760 760 759 759 758 757 756 755 754 753 752 751 749 748 747 746 744 743 742 741 739 738 736 735 734 733 731 730 729 728 727 726 725 724 722 721 719 719 717 716 715 715 714 714 713 712 712 712 711 711 711 710 710 709 709 710 710 709 709 709 709 709 709 710 710 710 710 711 711
759 759 758 757 756 755 754 754 752 751 750 749 747 746 745 744 742 741 739 738 737 735 734 732 731 730 729 727 726 725 724 723 721 720 719 718 716 715 714 713 712 711 711 710 709 709 708 708 708 707 707 707 706 706 706 706 706 706 706 706 706 706 706 707 707 707 708 708 707
759 758 757 756 755 754 753 752 750 749 748 747 745 744 742 741 740 738 737 735 734 733 731 729 728 727 725 724 723 722 721 720 718 717 715 714 713 712 711 709 709 708 707 707 706 705 704 704 704 703 703 703 702 702 702 702 702 702 702 702 702 702 703 703 703 704 704 704 704
757 756 755 754 753 752 751 750 749 747 746 744 743 741 740 739 737 736 734 733 731 730 729 727 725 724 722 721 719 718 717 716 715 713 712 710 709 708 707 706 705 704 704 703 702 701 701 700 700 699 699 699 699 698 698 698 698 698 698 698 699 699 699 699 699 700 700 701 701
756 755 754 753 752 750 749 748 746 745 744 742 741 739 738 736 735 733 732 730 729 727 726 724 722 721 719 718 716 714 713 712 711 710 708 707 706 704 704 703 702 701 700 699 698 697 697 696 696 695 695 695 694 694 694 694 694 694 694 694 694 695 695 695 696 696 697 697 697
754 753 752 751 750 749 747 746 744 743 741 740 738 737 735 734 732 731 729 727 726 724 723 721 719 718 716 714 713 711 710 709 707 706 705 704 702 701 700 699 699 697 696 695 694 693 693 692 692 691 691 691 690 690 690 690 690 690 690 691 691 691 691 692 692 693 693 693 694
753 752 750 749 748 747 745 744 742 741 739 738 736 734 733 731 729 728 726 725 723 721 719 718 716 715 713 712 710 709 707 705 704 702 701 700 699 697 696 696 695 694 692 691 690 689 689 688 688 687 687 687 687 686 686 686 686 686 686 687 687 687 687 688 688 689 689 689 690
751 750 749 747 746 744 743 742 740 739 737 735 734 732 730 729 727 725 724 722 720 718 716 715 713 712 710 709 707 705 704 702 700 698 697 696 695 694 693 692 691 689 688 687 686 685 685 684 684 684 684 683 683 682 682 682 682 682 682 683 683 683 683 684 684 685 685 686 686
749 748 747 745 744 742 741 739 738 736 735 733 732 730 728 726 724 723 721 719 717 715 713 712 710 709 707 705 704 702 701 699 697 695 693 692 690 690 689 688 687 685 684 683 682 681 681 681 681 680 680 680 679 679 679 678 678 678 678 679 679 679 679 679 680 680 681 682 682
748 746 744 743 742 740 739 737 736 734 733 731 729 728 726 724 722 720 718 716 714 712 710 709 707 705 704 702 700 699 697 695 694 692 691 689 687 686 685 684 683 682 680 679 678 678 677 677 677 677 677 677 676 676 675 674 674 674 674 674 675 675 675 675 675 676 677 677 678
746 744 743 741 740 738 737 735 734 732 730 729 727 725 723 721 719 718 715 713 711 709 708 706 704 703 701 699 697 695 694 692 691 689 688 686 684 683 681 680 679 678 677 675 675 674 674 674 674 674 674 674 673 673 672 671 671 671 671 671 671 671 671 671 671 672 672 673 673
744 742 741 739 738 736 734 733 732 730 728 726 724 723 721 719 717 715 713 711 709 707 705 703 701 700 698 696 694 692 690 689 688 686 684 683 681 679 678 677 675 674 673 672 671 671 670 670 670 670 670 670 670 669 669 668 667 667 667 667 666 666 666 666 667 667 668 669 669
742 740 739 737 735 734 732 731 729 728 726 724 722 720 718 716 714 712 710 708 706 704 703 701 699 697 695 693 691 689 688 686 684 683 681 679 678 676 674 673 671 670 669 668 668 667 667 666 666 666 666 667 666 666 665 664 663 663 662 662 662 662 662 662 662 663 664 664 665
740 739 737 735 734 732 730 729 727 725 724 722 720 718 716 714 712 709 708 706 704 702 700 699 697 695 693 691 689 687 685 683 681 680 678 676 674 672 670 669 668 666 664 664 664 663 663 662 662 662 662 663 663 662 661 660 659 659 658 658 657 657 657 658 658 659 659 660 661
739 737 735 734 732 730 728 726 725 723 721 719 718 715 714 711 709 707 705 704 702 699 698 696 694 692 690 688 686 684 682 679 678 676 674 673 670 668 666 665 664 662 660 660 659 659 658 658 658 657 658 658 659 658 657 656 655 655 654 653 653 653 654 654 654 654 655 656 657
737 735 734 732 730 728 726 724 723 721 719 717 715 713 711 709 707 705 703 702 699 697 695 693 691 689 687 684 683 681 679 677 674 673 671 669 667 665 663 661 659 658 656 655 655 654 654 653 653 653 653 653 654 654 653 652 652 651 650 649 649 649 650 650 651 651 651 652 653
735 733 732 730 728 726 724 722 720 719 717 715 713 711 709 707 704 703 701 699 698 695 693 691 689 686 684 681 679 677 675 673 671 669 667 665 664 661 659 657 654 653 651 651 650 649 649 648 648 648 648 648 649 649 648 648 647 647 646 645 645 646 646 647 647 647 648 649 649
733 732 730 728 726 724 722 720 718 716 714 712 710 708 707 705 703 700 698 697 695 693 691 688 686 684 681 679 677 674 672 669 667 665 663 661 659 657 655 652 650 648 647 646 645 644 644 643 643 643 643 643 644 643 643 642 642 642 641 641 641 642 642 643 643 644 644 645 646
732 730 728 726 724 722 720 718 716 714 712 710 708 706 704 703 701 699 696 694 692 690 688 685 683 681 678 676 674 672 669 666 664 662 659 658 655 653 650 647 644 643 642 641 640 639 638 638 638 638 638 639 639 638 638 637 637 636 636 636 636 637 638 639 639 639 640 641 642
730 729 727 724 722 720 718 716 714 712 710 708 706 704 702 700 698 696 694 692 690 687 684 682 680 678 675 673 671 669 666 664 661 658 656 654 652 649 646 642 639 637 636 636 635 634 633 632 632 632 633 634 633 633 632 632 632 631 631 631 631 632 633 634 634 635 636 637 637
729 727 725 723 720 718 716 714 713 710 708 706 704 702 700 698 696 694 692 690 688 685 682 679 677 675 672 670 668 665 663 661 658 655 652 649 648 645 642 638 635 632 631 630 629 628 627 627 626 627 628 628 628 628 627 627 627 626 626 626 626 627 628 629 630 631 631 632 633
727 726 724 722 719 717 715 713 711 709 707 704 702 700 699 696 694 692 690 688 686 683 679 677 674 672 669 667 665 662 659 657 655 652 649 646 643 641 638 634 630 627 625 624 623 622 621 621 621 621 622 623 623 623 623 622 622 622 621 622 622 622 623 624 625 626 626 627 628
725 724 722 720 718 716 714 712 710 708 706 703 701 699 696 694 692 690 688 686 684 681 678 675 672 669 666 664 662 659 655 653 651 649 646 643 639 637 634 631 626 623 620 619 618 616 615 615 615 615 616 617 618 618 618 618 617 617 617 617 618 618 619 620 621 621 621 622 623
724 722 720 719 717 714 712 710 708 706 704 702 699 697 695 693 690 688 686 684 682 679 676 673 669 666 664 662 659 656 652 649 646 644 642 639 636 633 630 627 623 618 615 613 612 610 609 609 609 609 610 611 612 612 613 613 613 613 613 613 614 614 615 615 616 617 617 618 619
722 720 719 717 715 713 711 709 707 704 703 701 698 696 693 691 689 686 684 681 679 677 674 671 667 664 661 659 657 654 650 646 643 640 638 635 632 629 625 622 618 614 611 609 607 605 604 603 602 603 604 605 606 607 608 608 608 608 608 609 610 611 611 612 612 613 613 614 614